EWG6Y EDDL-EDDM

Flight info

Callsign EWG6Y
Flight time 0h 50m
Altitude 27000
Route DODEN7Z DODEN Y853 BOMBI T104 ROKIL DCT
Aircraft A320/M-SDE2E3FGIJ1RWXYZ/HB1

Departure

Time 2026-05-06 15:50
Airport Düsseldorf Airport (EDDL)

Arrival

Time 2026-05-06 16:41
Airport Munich Airport (EDDM)
Time Latitude Longitude Altitude Speed Heading
2026-05-06 15:30 51.28059 6.76708 125 ft 0 kts 275°
2026-05-06 15:40 51.28057 6.76734 123 ft 4 kts 277°
2026-05-06 15:41 51.28051 6.76771 123 ft 4 kts 323°
2026-05-06 15:41 51.28043 6.76777 124 ft 0 kts
2026-05-06 15:41 51.28063 6.76791 124 ft 3 kts 20°
2026-05-06 15:41 51.28066 6.76792 124 ft 0 kts 19°
2026-05-06 15:45 51.28069 6.76794 125 ft 2 kts 19°
2026-05-06 15:45 51.28119 6.76819 129 ft 13 kts 17°
2026-05-06 15:45 51.28206 6.76843 129 ft 13 kts
2026-05-06 15:45 51.28289 6.76827 128 ft 12 kts 323°
2026-05-06 15:46 51.28363 6.76736 124 ft 12 kts 322°
2026-05-06 15:46 51.28417 6.76653 125 ft 10 kts 289°
2026-05-06 15:46 51.28389 6.76566 123 ft 9 kts 232°
2026-05-06 15:46 51.28336 6.76454 121 ft 16 kts 233°
2026-05-06 15:47 51.28270 6.76316 124 ft 14 kts 233°
2026-05-06 15:47 51.28214 6.76198 126 ft 14 kts 233°
2026-05-06 15:47 51.28149 6.76062 127 ft 15 kts 232°
2026-05-06 15:47 51.28092 6.75943 127 ft 12 kts 233°
2026-05-06 15:48 51.28031 6.75815 126 ft 19 kts 233°
2026-05-06 15:48 51.27954 6.75654 129 ft 17 kts 232°
2026-05-06 15:48 51.27892 6.75522 125 ft 14 kts 232°
2026-05-06 15:48 51.27842 6.75417 124 ft 10 kts 238°
2026-05-06 15:49 51.27864 6.75334 125 ft 8 kts 328°
2026-05-06 15:49 51.27925 6.75283 120 ft 13 kts 333°
2026-05-06 15:49 51.28001 6.75285 124 ft 11 kts 49°
2026-05-06 15:49 51.28051 6.75389 124 ft 16 kts 52°
2026-05-06 15:50 51.28245 6.75796 129 ft 80 kts 53°
2026-05-06 15:50 51.28708 6.76766 126 ft 137 kts 52°
2026-05-06 15:50 51.29348 6.78111 479 ft 153 kts 51°
2026-05-06 15:50 51.29977 6.79474 1190 ft 152 kts 50°
2026-05-06 15:51 51.30613 6.80818 1890 ft 151 kts 49°
2026-05-06 15:51 51.31247 6.82152 2496 ft 150 kts 49°
2026-05-06 15:51 51.31871 6.83458 3034 ft 150 kts 50°
2026-05-06 15:51 51.32512 6.84801 3469 ft 159 kts 50°
2026-05-06 15:52 51.33229 6.86300 3685 ft 181 kts 50°
2026-05-06 15:52 51.34023 6.88026 3919 ft 205 kts 52°
2026-05-06 15:52 51.34891 6.90015 4197 ft 230 kts 58°
2026-05-06 15:52 51.35318 6.92618 4562 ft 259 kts 91°
2026-05-06 15:53 51.35041 6.95544 5253 ft 269 kts 98°
2026-05-06 15:53 51.34722 6.98518 6092 ft 274 kts 98°
2026-05-06 15:53 51.34411 7.01502 6891 ft 277 kts 97°
2026-05-06 15:53 51.34097 7.04573 7696 ft 281 kts 97°
2026-05-06 15:54 51.33781 7.07685 8522 ft 284 kts 97°
2026-05-06 15:54 51.33463 7.10831 9362 ft 287 kts 98°
2026-05-06 15:54 51.33127 7.13999 10130 ft 292 kts 101°
2026-05-06 15:54 51.32453 7.17097 10795 ft 300 kts 115°
2026-05-06 15:55 51.31289 7.20008 11027 ft 321 kts 133°
2026-05-06 15:55 51.29689 7.22602 11241 ft 342 kts 139°
2026-05-06 15:55 51.27955 7.25305 11738 ft 353 kts 138°
2026-05-06 15:55 51.26192 7.28076 12386 ft 358 kts 138°
2026-05-06 15:56 51.24408 7.30894 13061 ft 362 kts 138°
2026-05-06 15:56 51.22600 7.33751 13726 ft 367 kts 138°
2026-05-06 15:56 51.20778 7.36627 14331 ft 371 kts 138°
2026-05-06 15:56 51.18934 7.39529 14943 ft 374 kts 138°
2026-05-06 15:57 51.17100 7.42410 15576 ft 377 kts 137°
2026-05-06 15:57 51.15221 7.45360 16168 ft 380 kts 137°
2026-05-06 15:57 51.13320 7.48310 16781 ft 383 kts 138°
2026-05-06 15:57 51.11395 7.51261 17410 ft 386 kts 138°
2026-05-06 15:58 51.09445 7.54228 18027 ft 389 kts 138°
2026-05-06 15:58 51.07476 7.57216 18573 ft 392 kts 139°
2026-05-06 15:58 51.05495 7.60219 19122 ft 395 kts 140°
2026-05-06 15:58 51.03501 7.63245 19680 ft 397 kts 140°
2026-05-06 15:59 51.01518 7.66251 20205 ft 400 kts 140°
2026-05-06 15:59 50.99500 7.69314 20723 ft 403 kts 139°
2026-05-06 15:59 50.97454 7.72394 21245 ft 405 kts 142°
2026-05-06 15:59 50.95205 7.75085 21723 ft 405 kts 151°
2026-05-06 16:00 50.92797 7.77455 22209 ft 407 kts 151°
2026-05-06 16:00 50.90403 7.79806 22678 ft 410 kts 151°
2026-05-06 16:00 50.87969 7.82199 23134 ft 413 kts 151°
2026-05-06 16:00 50.85519 7.84612 23541 ft 416 kts 151°
2026-05-06 16:01 50.83052 7.87034 23925 ft 418 kts 151°
2026-05-06 16:01 50.80572 7.89463 24324 ft 420 kts 151°
2026-05-06 16:01 50.78082 7.91906 24710 ft 422 kts 151°
2026-05-06 16:01 50.75584 7.94357 25089 ft 423 kts 151°
2026-05-06 16:02 50.73105 7.96784 25450 ft 425 kts 151°
2026-05-06 16:02 50.70589 7.99242 25807 ft 426 kts 152°
2026-05-06 16:02 50.68057 8.01713 26194 ft 428 kts 152°
2026-05-06 16:02 50.65522 8.04178 26555 ft 429 kts 152°
2026-05-06 16:03 50.62973 8.06654 26770 ft 430 kts 152°
2026-05-06 16:03 50.60459 8.09149 26792 ft 427 kts 148°
2026-05-06 16:03 50.58127 8.12067 26789 ft 428 kts 143°
2026-05-06 16:03 50.55854 8.15065 26792 ft 426 kts 143°
2026-05-06 16:04 50.53576 8.18059 26790 ft 426 kts 143°
2026-05-06 16:04 50.51300 8.21038 26783 ft 426 kts 143°
2026-05-06 16:04 50.49019 8.24017 26786 ft 426 kts 143°
2026-05-06 16:04 50.46761 8.26968 26785 ft 426 kts 143°
2026-05-06 16:05 50.44485 8.29942 26790 ft 426 kts 143°
2026-05-06 16:05 50.42202 8.32923 26787 ft 426 kts 143°
2026-05-06 16:05 50.39927 8.35885 26768 ft 425 kts 143°
2026-05-06 16:05 50.37650 8.38840 26781 ft 424 kts 143°
2026-05-06 16:06 50.35380 8.41781 26788 ft 424 kts 143°
2026-05-06 16:06 50.33113 8.44720 26784 ft 423 kts 142°
2026-05-06 16:06 50.30876 8.47622 26786 ft 423 kts 142°
2026-05-06 16:06 50.28611 8.50559 26787 ft 422 kts 142°
2026-05-06 16:07 50.26348 8.53491 26790 ft 422 kts 142°
2026-05-06 16:07 50.24087 8.56415 26791 ft 422 kts 142°
2026-05-06 16:07 50.21828 8.59327 26792 ft 422 kts 143°
2026-05-06 16:07 50.19561 8.62240 26792 ft 422 kts 143°
2026-05-06 16:08 50.17294 8.65144 26792 ft 422 kts 143°
2026-05-06 16:08 50.15023 8.68050 26792 ft 422 kts 143°
2026-05-06 16:08 50.12757 8.70954 26793 ft 422 kts 143°
2026-05-06 16:08 50.10490 8.73862 26792 ft 422 kts 143°
2026-05-06 16:09 50.08252 8.76729 26785 ft 422 kts 142°
2026-05-06 16:09 50.05986 8.79627 26787 ft 421 kts 142°
2026-05-06 16:09 50.03742 8.82578 26787 ft 422 kts 141°
2026-05-06 16:09 50.01561 8.85602 26787 ft 422 kts 140°
2026-05-06 16:10 49.99400 8.88703 26781 ft 422 kts 139°
2026-05-06 16:10 49.97252 8.91822 26781 ft 422 kts 139°
2026-05-06 16:10 49.95107 8.94926 26780 ft 422 kts 139°
2026-05-06 16:10 49.92947 8.98020 26779 ft 422 kts 140°
2026-05-06 16:11 49.90808 9.01053 26779 ft 422 kts 140°
2026-05-06 16:11 49.88630 9.04114 26779 ft 422 kts 140°
2026-05-06 16:11 49.86448 9.07170 26778 ft 422 kts 140°
2026-05-06 16:11 49.84266 9.10223 26765 ft 422 kts 141°
2026-05-06 16:12 49.82088 9.13268 26767 ft 422 kts 141°
2026-05-06 16:12 49.79909 9.16312 26771 ft 422 kts 141°
2026-05-06 16:12 49.77729 9.19356 26774 ft 422 kts 141°
2026-05-06 16:12 49.75575 9.22358 26776 ft 422 kts 141°
2026-05-06 16:13 49.73397 9.25390 26784 ft 422 kts 141°
2026-05-06 16:13 49.71214 9.28429 26785 ft 422 kts 141°
2026-05-06 16:13 49.69031 9.31464 26785 ft 422 kts 141°
2026-05-06 16:13 49.66846 9.34491 26787 ft 422 kts 141°
2026-05-06 16:14 49.64661 9.37512 26788 ft 422 kts 141°
2026-05-06 16:14 49.62477 9.40540 26787 ft 422 kts 140°
2026-05-06 16:14 49.60454 9.43854 26788 ft 425 kts 134°
2026-05-06 16:14 49.58539 9.47245 26782 ft 425 kts 134°
2026-05-06 16:15 49.56594 9.50674 26792 ft 424 kts 134°
2026-05-06 16:15 49.54650 9.54090 26806 ft 423 kts 134°
2026-05-06 16:15 49.52706 9.57490 26814 ft 422 kts 134°
2026-05-06 16:15 49.50762 9.60879 26818 ft 422 kts 134°
2026-05-06 16:16 49.49477 9.63115 26822 ft 421 kts 134°
2026-05-06 16:16 49.46884 9.67637 26683 ft 420 kts 134°
2026-05-06 16:16 49.45604 9.69871 26518 ft 419 kts 134°
2026-05-06 16:16 49.43677 9.73235 26255 ft 417 kts 134°
2026-05-06 16:17 49.41755 9.76579 25957 ft 416 kts 134°
2026-05-06 16:17 49.39841 9.79899 25644 ft 415 kts 134°
2026-05-06 16:17 49.37956 9.83167 25360 ft 413 kts 134°
2026-05-06 16:17 49.36047 9.86471 25049 ft 413 kts 135°
2026-05-06 16:18 49.34143 9.89762 24755 ft 412 kts 135°
2026-05-06 16:18 49.32245 9.93044 24466 ft 411 kts 135°
2026-05-06 16:18 49.30352 9.96308 24178 ft 408 kts 135°
2026-05-06 16:18 49.28465 9.99551 23895 ft 406 kts 135°
2026-05-06 16:19 49.26585 10.02775 23654 ft 405 kts 135°
2026-05-06 16:19 49.24708 10.05992 23420 ft 405 kts 135°
2026-05-06 16:19 49.22828 10.09204 23150 ft 404 kts 135°
2026-05-06 16:19 49.20958 10.12395 22875 ft 402 kts 135°
2026-05-06 16:20 49.19094 10.15581 22601 ft 401 kts 135°
2026-05-06 16:20 49.17262 10.18713 22333 ft 399 kts 135°
2026-05-06 16:20 49.15413 10.21875 22046 ft 397 kts 135°
2026-05-06 16:20 49.13579 10.25000 21615 ft 392 kts 136°
2026-05-06 16:21 49.11709 10.28084 21251 ft 394 kts 136°
2026-05-06 16:21 49.09831 10.31102 20859 ft 392 kts 137°
2026-05-06 16:21 49.07946 10.34097 20468 ft 390 kts 137°
2026-05-06 16:21 49.06089 10.37046 20083 ft 388 kts 137°
2026-05-06 16:22 49.04227 10.40010 19694 ft 384 kts 137°
2026-05-06 16:22 49.02388 10.42946 19313 ft 381 kts 137°
2026-05-06 16:22 49.00567 10.45865 18934 ft 379 kts 137°
2026-05-06 16:22 48.98755 10.48765 18552 ft 377 kts 137°
2026-05-06 16:23 48.96948 10.51645 18178 ft 375 kts 137°
2026-05-06 16:23 48.95170 10.54476 17774 ft 373 kts 137°
2026-05-06 16:23 48.93358 10.57362 17395 ft 371 kts 137°
2026-05-06 16:23 48.91596 10.60164 17016 ft 372 kts 137°
2026-05-06 16:24 48.89807 10.63001 16787 ft 371 kts 137°
2026-05-06 16:24 48.88111 10.65982 16812 ft 374 kts 133°
2026-05-06 16:24 48.86476 10.69062 16810 ft 374 kts 132°
2026-05-06 16:24 48.84868 10.72173 16809 ft 374 kts 131°
2026-05-06 16:25 48.83271 10.75300 16800 ft 375 kts 131°
2026-05-06 16:25 48.81675 10.78428 16798 ft 375 kts 131°
2026-05-06 16:25 48.80073 10.81550 16791 ft 375 kts 131°
2026-05-06 16:25 48.78467 10.84656 16785 ft 374 kts 132°
2026-05-06 16:26 48.76855 10.87756 16776 ft 373 kts 132°
2026-05-06 16:26 48.75268 10.90794 16771 ft 373 kts 132°
2026-05-06 16:26 48.73636 10.93914 16768 ft 373 kts 132°
2026-05-06 16:26 48.72043 10.96950 16601 ft 372 kts 133°
2026-05-06 16:27 48.70442 11.00003 16153 ft 368 kts 133°
2026-05-06 16:27 48.68854 11.03036 15675 ft 366 kts 133°
2026-05-06 16:27 48.67274 11.06050 15189 ft 364 kts 133°
2026-05-06 16:27 48.65704 11.09043 14727 ft 362 kts 133°
2026-05-06 16:28 48.64141 11.12016 14262 ft 360 kts 133°
2026-05-06 16:28 48.62588 11.14965 13806 ft 358 kts 133°
2026-05-06 16:28 48.61061 11.17865 13352 ft 356 kts 132°
2026-05-06 16:28 48.59525 11.20777 12871 ft 353 kts 132°
2026-05-06 16:29 48.57998 11.23672 12390 ft 350 kts 132°
2026-05-06 16:29 48.56483 11.26536 11947 ft 347 kts 132°
2026-05-06 16:29 48.54979 11.29381 11465 ft 344 kts 131°
2026-05-06 16:29 48.53489 11.32195 11003 ft 341 kts 131°
2026-05-06 16:30 48.52008 11.34985 10781 ft 340 kts 131°
2026-05-06 16:30 48.51032 11.36821 10777 ft 339 kts 131°
2026-05-06 16:30 48.49072 11.40500 10792 ft 339 kts 131°
2026-05-06 16:30 48.47619 11.43231 10790 ft 330 kts 131°
2026-05-06 16:31 48.46191 11.45919 10789 ft 327 kts 131°
2026-05-06 16:31 48.44937 11.48784 10788 ft 329 kts 121°
2026-05-06 16:31 48.44038 11.51972 10788 ft 332 kts 110°
2026-05-06 16:31 48.43535 11.55391 10786 ft 336 kts 99°
2026-05-06 16:32 48.43452 11.58916 10787 ft 338 kts 89°
2026-05-06 16:32 48.43705 11.62442 10747 ft 338 kts 85°
2026-05-06 16:32 48.43979 11.65897 10321 ft 335 kts 85°
2026-05-06 16:32 48.44251 11.69352 10046 ft 327 kts 85°
2026-05-06 16:33 48.44513 11.72690 9912 ft 315 kts 86°
2026-05-06 16:33 48.44763 11.75903 9773 ft 304 kts 86°
2026-05-06 16:33 48.45004 11.79054 9485 ft 300 kts 86°
2026-05-06 16:34 48.45464 11.85206 8466 ft 291 kts 86°
2026-05-06 16:34 48.45687 11.88219 7846 ft 287 kts 85°
2026-05-06 16:34 48.45905 11.91139 7251 ft 282 kts 85°
2026-05-06 16:34 48.46125 11.94056 6657 ft 278 kts 85°
2026-05-06 16:35 48.46342 11.96926 6072 ft 273 kts 84°
2026-05-06 16:35 48.46554 11.99747 5443 ft 269 kts 84°
2026-05-06 16:35 48.46761 12.02536 4828 ft 267 kts 84°
2026-05-06 16:35 48.46934 12.05307 4448 ft 264 kts 91°
2026-05-06 16:36 48.46488 12.07947 4071 ft 261 kts 120°
2026-05-06 16:36 48.45255 12.09823 3984 ft 247 kts 151°
2026-05-06 16:36 48.43657 12.10525 4000 ft 238 kts 172°
2026-05-06 16:36 48.42009 12.10657 3993 ft 237 kts 189°
2026-05-06 16:37 48.40518 12.09663 3999 ft 236 kts 221°
2026-05-06 16:37 48.39452 12.07842 4010 ft 231 kts 232°
2026-05-06 16:37 48.38513 12.05868 4004 ft 231 kts 238°
2026-05-06 16:37 48.38079 12.03621 3996 ft 227 kts 272°
2026-05-06 16:38 48.38119 12.01320 3934 ft 215 kts 267°
2026-05-06 16:38 48.37977 11.99105 3737 ft 209 kts 264°
2026-05-06 16:38 48.37810 11.96963 3454 ft 204 kts 264°
2026-05-06 16:38 48.37651 11.94870 3189 ft 197 kts 264°
2026-05-06 16:39 48.37501 11.92877 2939 ft 186 kts 264°
2026-05-06 16:39 48.37361 11.91026 2697 ft 174 kts 265°
2026-05-06 16:39 48.37229 11.89281 2460 ft 161 kts 264°
2026-05-06 16:39 48.37106 11.87651 2230 ft 154 kts 264°
2026-05-06 16:40 48.36987 11.86071 2013 ft 151 kts 264°
2026-05-06 16:40 48.36867 11.84493 1811 ft 152 kts 264°
2026-05-06 16:40 48.36746 11.82901 1616 ft 154 kts 264°
2026-05-06 16:40 48.36623 11.81307 1485 ft 147 kts 264°
2026-05-06 16:41 48.36524 11.79978 1472 ft 104 kts 263°
2026-05-06 16:41 48.36461 11.79174 1482 ft 38 kts 263°
2026-05-06 16:41 48.36389 11.78888 1481 ft 23 kts 234°
2026-05-06 16:41 48.36294 11.78694 1479 ft 20 kts 233°
2026-05-06 16:42 48.36232 11.78567 1485 ft 14 kts 233°
2026-05-06 16:42 48.36166 11.78480 1483 ft 12 kts 194°
2026-05-06 16:42 48.36080 11.78486 1483 ft 10 kts 173°
2026-05-06 16:42 48.36033 11.78534 1483 ft 9 kts 97°
2026-05-06 16:43 48.36043 11.78669 1485 ft 15 kts 83°
2026-05-06 16:43 48.36056 11.78834 1483 ft 17 kts 83°
2026-05-06 16:43 48.36070 11.79015 1485 ft 18 kts 83°
2026-05-06 16:43 48.36084 11.79197 1485 ft 14 kts 83°
2026-05-06 16:44 48.36057 11.79321 1479 ft 15 kts 166°
2026-05-06 16:44 48.36002 11.79331 1481 ft 6 kts 173°
2026-05-06 16:44 48.35968 11.79337 1481 ft 4 kts 173°
2026-05-06 16:44 48.35942 11.79342 1485 ft 3 kts 171°
2026-05-06 16:45 48.35914 11.79365 1477 ft 7 kts 148°
2026-05-06 16:45 48.35865 11.79374 1479 ft 7 kts 201°
2026-05-06 16:45 48.35847 11.79316 1483 ft 7 kts 265°
2026-05-06 16:45 48.35842 11.79259 1485 ft 3 kts 263°
2026-05-06 16:46 48.35842 11.79250 1485 ft 0 kts 263°
2026-05-06 16:49 48.35842 11.79249 1485 ft 0 kts 263°